QPF
0.00 0.00 0.00 0.00 0.00 0.00 0.00 0.00 0.00 0.00 0.00 0.00 0.00 0.00 0.00 0.00 0.00 0.00 0.00 0.00 0.00 0.00 0.00 0.00 0.00 0.00 0.01 0.04 0.06 0.16 0.01 0.02 0.06 0.05 0.02 0.00 0.01 0.00 0.00 0.00 0.00 0.00 0.00 0.00 0.00
0.00 0.00 0.00 0.00 0.00 0.00 0.00 0.00 0.00 0.00 0.00 0.00 0.00 0.00 0.00 0.00 0.00 0.00 0.00 0.00 0.00 0.00 0.00 0.00 0.00 0.00 0.00 0.09 0.11 0.07 0.04 0.03 0.02 0.00 0.01 0.00 0.02 0.00 0.00 0.00 0.00 0.00 0.00 0.00 0.00
0.00 0.00 0.00 0.00 0.00 0.00 0.00 0.00 0.00 0.00 0.00 0.00 0.00 0.00 0.00 0.00 0.00 0.00 0.00 0.00 0.00 0.00 0.00 0.00 0.00 0.00 0.00 0.02 0.07 0.01 0.05 0.01 0.00 0.01 0.07 0.06 0.01 0.00 0.00 0.00 0.00 0.00 0.00 0.00 0.01
0.00 0.00 0.00 0.00 0.00 0.00 0.00 0.00 0.00 0.00 0.00 0.00 0.00 0.00 0.00 0.00 0.00 0.00 0.00 0.00 0.00 0.00 0.00 0.00 0.00 0.00 0.00 0.00 0.04 0.01 0.02 0.01 0.00 0.02 0.07 0.03 0.02 0.00 0.00 0.00 0.00 0.00 0.00 0.00 0.01
0.00 0.00 0.00 0.00 0.00 0.00 0.00 0.00 0.00 0.00 0.00 0.00 0.00 0.00 0.00 0.00 0.00 0.00 0.00 0.00 0.00 0.00 0.00 0.00 0.00 0.00 0.00 0.01 0.09 0.07 0.01 0.01 0.04 0.06 0.01 0.00 0.00 0.00 0.00 0.00 0.00 0.00 0.00 0.00 0.00
0.00 0.00 0.00 0.00 0.00 0.00 0.00 0.00 0.00 0.00 0.00 0.00 0.00 0.00 0.00 0.00 0.00 0.00 0.00 0.00 0.00 0.00 0.00 0.00 0.00 0.00 0.00 0.02 0.03 0.09 0.03 0.01 0.04 0.02 0.01 0.04 0.01 0.00 0.00 0.00 0.00 0.00 0.00 0.03 0.00
0.00 0.00 0.00 0.00 0.00 0.00 0.00 0.00 0.00 0.00 0.00 0.00 0.00 0.00 0.00 0.00 0.00 0.00 0.00 0.00 0.00 0.00 0.00 0.00 0.00 0.00 0.00 0.02 0.02 0.01 0.00 0.01 0.03 0.00 0.00 0.02 0.03 0.00 0.00 0.00 0.00 0.00 0.00 0.00 0.00
0.00 0.00 0.00 0.00 0.00 0.00 0.00 0.00 0.00 0.00 0.00 0.00 0.00 0.00 0.00 0.00 0.00 0.00 0.00 0.00 0.00 0.00 0.00 0.00 0.00 0.00 0.00 0.01 0.02 0.16 0.05 0.02 0.01 0.00 0.00 0.00 0.01 0.00 0.00 0.00 0.00 0.00 0.00 0.00 0.00
0.00 0.00 0.00 0.00 0.00 0.00 0.00 0.00 0.00 0.00 0.00 0.00 0.00 0.00 0.00 0.00 0.00 0.00 0.00 0.00 0.00 0.00 0.00 0.00 0.00 0.00 0.00 0.03 0.02 0.04 0.01 0.00 0.00 0.00 0.00 0.00 0.00 0.00 0.00 0.00 0.00 0.00 0.00 0.00 0.00
0.00 0.00 0.00 0.00 0.00 0.00 0.00 0.00 0.00 0.00 0.00 0.00 0.00 0.00 0.00 0.00 0.00 0.00 0.00 0.00 0.00 0.00 0.00 0.00 0.00 0.00 0.00 0.00 0.01 0.01 0.00 0.00 0.00 0.00 0.00 0.00 0.00 0.00 0.00 0.00 0.00 0.00 0.00 0.00 0.00
0.00 0.00 0.00 0.00 0.00 0.00 0.00 0.00 0.00 0.00 0.00 0.00 0.00 0.00 0.00 0.00 0.00 0.00 0.00 0.00 0.00 0.00 0.00 0.00 0.00 0.00 0.00 0.00 0.00 0.01 0.00 0.00 0.00 0.00 0.00 0.00 0.00 0.00 0.00 0.00 0.00 0.00 0.00 0.00 0.00
0.00 0.00 0.00 0.00 0.00 0.00 0.00 0.00 0.00 0.00 0.00 0.00 0.00 0.00 0.00 0.00 0.00 0.00 0.00 0.00 0.00 0.00 0.00 0.00 0.00 0.00 0.00 0.00 0.00 0.01 0.00 0.00 0.00 0.00 0.01 0.00 0.00 0.00 0.00 0.00 0.00 0.00 0.00 0.00 0.00
0.00 0.00 0.00 0.00 0.00 0.00 0.00 0.00 0.00 0.00 0.00 0.00 0.00 0.00 0.00 0.00 0.00 0.00 0.00 0.00 0.00 0.00 0.00 0.00 0.00 0.00 0.00 0.00 0.00 0.00 0.00 0.00 0.00 0.01 0.01 0.02 0.01 0.00 0.00 0.00 0.00 0.00 0.00 0.00 0.00
0.00 0.00 0.00 0.00 0.00 0.00 0.00 0.00 0.00 0.00 0.00 0.00 0.00 0.00 0.00 0.00 0.00 0.00 0.00 0.00 0.00 0.00 0.00 0.00 0.00 0.00 0.00 0.00 0.00 0.00 0.00 0.00 0.00 0.04 0.04 0.04 0.01 0.00 0.00 0.00 0.00 0.00 0.00 0.00 0.00
0.00 0.00 0.00 0.00 0.00 0.00 0.00 0.00 0.00 0.00 0.00 0.00 0.00 0.00 0.00 0.00 0.00 0.00 0.00 0.00 0.00 0.00 0.00 0.00 0.00 0.00 0.00 0.00 0.00 0.00 0.00 0.00 0.00 0.00 0.02 0.03 0.03 0.00 0.00 0.00 0.00 0.00 0.00 0.00 0.00
0.00 0.00 0.00 0.00 0.00 0.00 0.00 0.00 0.00 0.00 0.00 0.00 0.00 0.00 0.00 0.00 0.00 0.00 0.00 0.00 0.00 0.00 0.00 0.00 0.00 0.00 0.00 0.00 0.00 0.00 0.00 0.00 0.01 0.02 0.01 0.00 0.01 0.01 0.01 0.00 0.00 0.00 0.00 0.00 0.00
0.00 0.00 0.00 0.00 0.00 0.00 0.00 0.00 0.00 0.00 0.00 0.00 0.00 0.00 0.00 0.00 0.00 0.00 0.00 0.00 0.00 0.00 0.00 0.00 0.00 0.00 0.00 0.00 0.00 0.00 0.00 0.00 0.01 0.00 0.00 0.00 0.01 0.03 0.02 0.05 0.05 0.00 0.00 0.00 0.00
0.00 0.00 0.00 0.00 0.00 0.00 0.00 0.00 0.00 0.00 0.00 0.00 0.00 0.00 0.00 0.00 0.00 0.00 0.00 0.00 0.00 0.00 0.00 0.00 0.00 0.00 0.00 0.00 0.00 0.00 0.00 0.00 0.00 0.00 0.00 0.00 0.00 0.00 0.01 0.02 0.07 0.05 0.00 0.00 0.00
0.00 0.00 0.00 0.00 0.00 0.00 0.00 0.00 0.00 0.00 0.00 0.00 0.00 0.00 0.00 0.00 0.00 0.00 0.00 0.00 0.00 0.00 0.00 0.00 0.00 0.00 0.00 0.00 0.00 0.00 0.00 0.00 0.00 0.00 0.00 0.00 0.03 0.03 0.02 0.05 0.02 0.02 0.02 0.00 0.00
0.00 0.00 0.00 0.00 0.00 0.00 0.00 0.00 0.00 0.00 0.00 0.00 0.00 0.00 0.00 0.00 0.00 0.00 0.00 0.00 0.00 0.00 0.00 0.00 0.00 0.00 0.00 0.00 0.00 0.00 0.00 0.00 0.00 0.00 0.00 0.00 0.00 0.00 0.00 0.03 0.03 0.04 0.03 0.01 0.00
0.00 0.00 0.00 0.00 0.00 0.00 0.00 0.00 0.00 0.00 0.00 0.00 0.00 0.00 0.00 0.00 0.00 0.00 0.00 0.00 0.00 0.00 0.00 0.00 0.00 0.00 0.00 0.00 0.00 0.00 0.00 0.00 0.00 0.00 0.00 0.00 0.00 0.00 0.00 0.00 0.00 0.06 0.07 0.01 0.00
0.00 0.00 0.00 0.00 0.00 0.00 0.00 0.00 0.00 0.00 0.00 0.00 0.00 0.00 0.00 0.00 0.00 0.00 0.00 0.00 0.00 0.00 0.00 0.00 0.00 0.00 0.00 0.00 0.00 0.00 0.00 0.00 0.00 0.00 0.00 0.00 0.00 0.00 0.00 0.00 0.01 0.02 0.13 0.08 0.02
0.00 0.00 0.00 0.00 0.00 0.00 0.00 0.00 0.00 0.00 0.00 0.00 0.00 0.00 0.00 0.00 0.00 0.00 0.00 0.00 0.00 0.00 0.00 0.00 0.00 0.00 0.00 0.00 0.00 0.00 0.00 0.00 0.00 0.00 0.00 0.00 0.00 0.00 0.00 0.01 0.00 0.03 0.10 0.06 0.00
0.00 0.00 0.00 0.00 0.00 0.00 0.00 0.00 0.00 0.00 0.00 0.00 0.00 0.00 0.00 0.00 0.00 0.00 0.00 0.00 0.00 0.00 0.00 0.00 0.00 0.00 0.00 0.00 0.00 0.00 0.00 0.00 0.00 0.00 0.00 0.00 0.00 0.00 0.00 0.00 0.00 0.07 0.10 0.09 0.10
0.00 0.00 0.00 0.00 0.00 0.00 0.00 0.00 0.00 0.00 0.00 0.00 0.00 0.00 0.00 0.00 0.00 0.00 0.00 0.00 0.00 0.00 0.00 0.00 0.00 0.00 0.00 0.00 0.00 0.00 0.00 0.00 0.00 0.00 0.00 0.00 0.00 0.00 0.01 0.00 0.00 0.01 0.07 0.15 0.11
0.00 0.00 0.00 0.00 0.00 0.00 0.00 0.00 0.00 0.00 0.00 0.00 0.00 0.00 0.00 0.00 0.00 0.00 0.00 0.00 0.00 0.00 0.00 0.00 0.00 0.00 0.00 0.00 0.00 0.00 0.00 0.00 0.00 0.00 0.00 0.00 0.00 0.00 0.00 0.00 0.00 0.06 0.09 0.03 0.02
0.00 0.00 0.00 0.00 0.00 0.00 0.00 0.00 0.00 0.00 0.00 0.00 0.00 0.00 0.00 0.00 0.00 0.00 0.00 0.00 0.00 0.00 0.00 0.00 0.00 0.00 0.00 0.00 0.00 0.00 0.00 0.00 0.00 0.00 0.01 0.00 0.00 0.00 0.00 0.00 0.00 0.03 0.04 0.08 0.03
MSLP
1017.68 1017.44 1017.11 1016.87 1016.58 1016.21 1015.88 1015.62 1015.43 1015.18 1014.95 1014.74 1014.49 1014.26 1013.90 1013.53 1012.71 1012.19 1011.43 1009.48 1009.51 1009.22 1009.18 1009.19 1009.31 1009.67 1009.98 1010.46 1010.99 1013.34 1014.02 1014.57 1013.94 1013.15 1011.88 1011.59 1010.50 1010.14 1009.99 1010.79 1011.38 1011.72 1012.61 1013.76 1014.64
1017.72 1017.42 1017.17 1016.90 1016.60 1016.26 1015.90 1015.62 1015.36 1015.16 1014.96 1014.75 1014.45 1014.22 1013.89 1013.56 1012.94 1011.33 1008.73 1008.63 1008.92 1009.07 1009.09 1009.21 1009.50 1009.65 1009.72 1010.09 1011.06 1012.22 1013.88 1014.05 1014.68 1013.96 1013.27 1012.20 1011.02 1010.30 1010.59 1011.29 1011.98 1012.67 1013.80 1014.54 1015.41
1017.81 1017.47 1017.11 1016.79 1016.47 1016.19 1015.86 1015.56 1015.32 1015.19 1014.96 1014.73 1014.46 1014.13 1013.83 1013.54 1012.56 1009.20 1007.48 1008.07 1008.67 1008.93 1009.13 1009.23 1009.35 1009.56 1009.75 1010.20 1011.38 1012.12 1013.19 1014.00 1014.30 1013.79 1013.49 1012.75 1011.17 1011.12 1010.32 1011.55 1011.28 1012.56 1013.90 1014.94 1015.51
1017.77 1017.46 1017.18 1016.80 1016.43 1016.08 1015.84 1015.52 1015.24 1015.07 1014.85 1014.62 1014.38 1014.09 1013.73 1013.44 1011.15 1007.74 1007.48 1007.95 1008.48 1008.90 1009.14 1008.90 1008.99 1009.28 1009.56 1010.76 1011.70 1012.46 1013.33 1013.92 1014.10 1013.97 1013.72 1012.82 1012.30 1011.67 1010.45 1010.74 1011.03 1011.79 1013.26 1014.46 1015.21
1017.72 1017.39 1017.03 1016.66 1016.33 1016.01 1015.70 1015.38 1015.16 1014.88 1014.68 1014.45 1014.25 1014.06 1013.62 1012.55 1009.67 1007.26 1007.61 1008.08 1008.60 1008.94 1008.89 1008.61 1008.80 1009.00 1009.51 1010.78 1011.46 1012.22 1013.22 1013.65 1013.67 1013.93 1013.51 1012.99 1011.80 1010.80 1010.82 1010.97 1011.89 1012.46 1013.35 1014.45 1014.76
1017.65 1017.27 1016.89 1016.50 1016.16 1015.83 1015.48 1015.11 1014.82 1014.62 1014.41 1014.26 1014.10 1014.04 1013.49 1011.00 1007.28 1007.25 1007.69 1008.24 1008.45 1008.64 1008.43 1008.69 1008.53 1008.46 1009.59 1010.51 1011.13 1011.67 1012.76 1013.40 1013.51 1013.58 1013.61 1013.03 1012.20 1011.30 1011.51 1011.28 1012.11 1012.73 1013.62 1014.50 1015.02
1017.56 1017.13 1016.74 1016.34 1015.94 1015.59 1015.16 1014.78 1014.45 1014.27 1014.12 1014.01 1013.95 1013.75 1012.65 1008.89 1007.08 1007.31 1007.40 1007.63 1007.81 1008.04 1008.27 1007.99 1008.13 1008.50 1008.73 1010.36 1011.55 1012.25 1013.03 1013.36 1013.23 1013.14 1013.28 1013.30 1012.50 1011.98 1011.70 1011.27 1011.84 1012.55 1013.25 1014.05 1014.97
1017.47 1017.05 1016.63 1016.17 1015.72 1015.30 1014.80 1014.31 1013.98 1013.80 1013.71 1013.63 1013.70 1013.46 1011.10 1007.34 1006.88 1007.48 1007.36 1007.26 1007.34 1007.60 1007.85 1007.49 1007.63 1007.72 1008.56 1010.53 1012.09 1012.59 1012.98 1013.29 1013.07 1013.02 1013.13 1013.44 1013.01 1012.43 1012.27 1011.73 1011.87 1012.15 1012.76 1013.63 1014.39
1017.38 1016.92 1016.47 1015.98 1015.47 1014.94 1014.28 1013.69 1013.30 1013.25 1013.36 1013.40 1013.47 1012.85 1009.89 1007.10 1006.91 1006.47 1006.80 1007.05 1007.04 1007.21 1007.25 1006.96 1007.15 1008.11 1009.45 1010.74 1012.41 1012.90 1012.77 1012.17 1012.13 1011.87 1012.31 1012.57 1012.80 1012.68 1012.57 1012.31 1012.39 1012.36 1012.39 1012.83 1013.88
1017.19 1016.66 1016.17 1015.74 1015.25 1014.64 1013.78 1012.86 1012.72 1012.97 1013.14 1013.05 1012.51 1012.19 1009.24 1007.26 1006.53 1006.22 1006.22 1006.64 1006.90 1006.98 1007.36 1007.33 1007.99 1008.83 1009.70 1010.68 1011.82 1012.53 1012.48 1011.94 1011.55 1011.72 1012.27 1012.38 1012.64 1012.73 1012.81 1012.93 1012.82 1012.76 1012.76 1012.65 1013.15
1016.98 1016.38 1015.86 1015.45 1015.01 1014.56 1013.65 1012.75 1012.94 1012.61 1012.07 1010.76 1009.98 1009.27 1007.69 1006.40 1006.02 1006.07 1005.95 1006.21 1006.75 1007.36 1007.89 1007.94 1008.84 1009.04 1009.00 1009.82 1010.14 1010.98 1011.38 1011.39 1011.00 1011.21 1011.93 1012.35 1012.60 1012.86 1012.99 1013.19 1013.07 1012.54 1013.00 1013.18 1012.44
1016.78 1016.13 1015.50 1014.96 1014.70 1014.52 1014.53 1013.17 1010.83 1010.15 1009.93 1008.61 1007.97 1007.86 1006.97 1006.12 1006.13 1006.09 1006.02 1006.64 1007.05 1007.66 1008.14 1008.74 1008.62 1007.92 1008.12 1008.43 1009.24 1009.95 1010.64 1010.96 1010.91 1011.20 1011.80 1012.22 1012.67 1012.85 1013.33 1013.14 1012.94 1012.99 1013.01 1012.77 1012.95
1016.43 1015.81 1015.14 1014.45 1014.04 1014.09 1013.51 1011.43 1009.03 1009.59 1009.82 1007.41 1006.46 1006.16 1005.66 1005.87 1005.99 1005.96 1006.24 1006.53 1007.17 1007.73 1008.04 1008.39 1007.39 1007.04 1007.39 1007.35 1008.62 1009.26 1009.33 1010.21 1010.58 1010.95 1011.42 1012.20 1012.66 1012.87 1013.04 1013.04 1012.98 1013.12 1012.77 1012.54 1013.12
1016.13 1015.54 1014.94 1014.04 1013.74 1013.32 1011.75 1008.97 1009.05 1009.47 1009.68 1007.41 1005.75 1004.75 1004.79 1005.18 1005.42 1004.99 1005.62 1006.27 1006.81 1007.23 1007.54 1007.54 1006.12 1006.39 1006.45 1006.45 1006.84 1008.12 1008.42 1009.37 1010.21 1010.89 1011.32 1011.73 1012.81 1012.53 1012.71 1012.79 1012.83 1012.72 1012.78 1012.86 1013.21
1015.80 1015.25 1014.88 1014.76 1014.34 1012.87 1009.91 1009.17 1008.79 1008.89 1008.96 1005.91 1004.92 1003.62 1004.32 1005.08 1005.18 1005.29 1005.16 1005.82 1006.46 1006.87 1007.38 1006.79 1006.08 1005.70 1005.42 1005.30 1005.71 1006.49 1007.55 1008.57 1009.52 1010.44 1011.44 1012.37 1013.02 1012.09 1012.43 1012.65 1012.02 1011.95 1012.38 1012.71 1013.12
1015.26 1014.89 1014.67 1014.43 1014.35 1010.94 1009.86 1009.25 1008.85 1009.66 1007.57 1005.58 1004.39 1004.15 1004.66 1005.01 1005.22 1005.16 1005.30 1005.54 1005.85 1006.42 1006.54 1006.32 1005.33 1004.96 1004.59 1004.43 1004.91 1006.10 1007.36 1008.89 1010.25 1011.68 1012.67 1012.25 1012.75 1012.35 1012.56 1011.95 1011.67 1011.96 1011.99 1012.30 1012.45
1014.33 1014.17 1014.41 1013.54 1011.80 1010.11 1009.77 1009.75 1010.18 1009.28 1006.52 1005.34 1004.62 1004.37 1004.59 1005.07 1005.41 1005.43 1005.68 1006.01 1006.55 1007.08 1007.26 1006.36 1005.51 1004.77 1004.38 1004.66 1004.94 1005.84 1007.95 1009.74 1011.75 1012.75 1012.48 1011.61 1012.30 1011.66 1011.77 1011.09 1011.02 1010.69 1010.94 1011.58 1011.97
1013.38 1012.61 1012.42 1011.78 1010.52 1010.59 1010.56 1010.70 1010.25 1008.04 1006.26 1004.68 1004.37 1004.25 1004.80 1004.85 1005.22 1005.38 1005.74 1006.27 1006.18 1006.87 1007.63 1007.37 1005.86 1004.57 1004.16 1004.58 1005.27 1006.34 1007.98 1009.76 1011.23 1012.41 1012.21 1011.83 1012.04 1011.73 1011.02 1010.62 1010.84 1009.69 1010.14 1011.08 1011.72
1012.80 1012.19 1012.03 1009.73 1010.08 1011.03 1011.50 1011.18 1009.52 1007.60 1005.91 1004.79 1004.39 1004.41 1004.36 1004.25 1004.54 1005.23 1005.53 1005.66 1005.70 1005.95 1006.86 1006.72 1005.93 1004.57 1004.17 1004.34 1005.26 1006.40 1007.67 1008.79 1010.54 1011.79 1012.41 1012.71 1012.56 1012.01 1010.90 1010.08 1009.85 1009.82 1009.79 1009.99 1010.35
1013.68 1012.51 1010.50 1008.40 1009.47 1010.57 1011.60 1010.96 1008.80 1006.78 1005.68 1004.53 1004.87 1004.71 1004.71 1004.36 1004.53 1004.87 1004.97 1004.62 1004.87 1005.00 1005.80 1006.41 1006.46 1005.64 1004.87 1004.71 1005.22 1005.99 1007.22 1009.16 1011.04 1012.55 1013.24 1013.07 1012.81 1012.21 1011.35 1010.80 1010.93 1010.79 1010.74 1010.70 1010.37
1013.82 1012.25 1008.47 1008.14 1009.06 1010.94 1011.65 1010.26 1008.03 1006.33 1005.43 1004.64 1004.53 1004.64 1004.81 1004.85 1004.76 1004.80 1004.68 1004.61 1004.41 1004.94 1005.36 1006.38 1007.20 1006.90 1006.12 1006.76 1006.96 1007.71 1008.97 1010.16 1011.50 1012.86 1013.76 1013.93 1013.19 1011.32 1011.47 1011.35 1011.04 1010.76 1010.51 1010.25 1010.50
1014.82 1012.82 1008.64 1008.11 1010.03 1010.71 1010.91 1009.27 1007.80 1006.37 1005.40 1004.50 1004.02 1004.29 1004.58 1004.82 1004.90 1004.81 1004.65 1004.39 1004.24 1004.79 1006.03 1006.72 1007.99 1008.65 1008.47 1008.71 1008.26 1009.03 1010.48 1011.30 1012.86 1013.88 1014.16 1013.82 1012.46 1011.13 1011.06 1011.22 1011.40 1010.53 1009.70 1009.62 1010.02
1016.37 1013.55 1008.84 1008.87 1009.96 1010.77 1009.96 1008.83 1007.95 1006.55 1005.58 1004.71 1004.05 1004.13 1004.33 1004.85 1005.10 1004.84 1004.46 1004.04 1004.23 1005.14 1006.11 1006.95 1008.75 1009.71 1009.45 1009.77 1009.57 1010.26 1011.26 1011.90 1012.70 1013.54 1014.11 1013.88 1012.30 1011.35 1011.07 1010.86 1010.89 1010.74 1010.01 1009.85 1010.13
1017.08 1014.68 1011.18 1009.90 1009.91 1010.38 1010.44 1009.15 1007.67 1006.08 1005.37 1004.07 1004.05 1004.05 1004.41 1004.78 1004.94 1005.06 1004.62 1004.34 1004.45 1005.25 1006.13 1007.04 1009.45 1010.44 1010.90 1010.87 1010.80 1011.29 1011.35 1011.88 1012.53 1013.47 1013.87 1013.31 1012.26 1011.80 1011.31 1011.12 1011.11 1011.31 1010.92 1010.41 1010.48
1016.97 1015.43 1013.80 1012.42 1011.48 1011.32 1010.72 1009.50 1008.07 1006.75 1005.44 1004.62 1003.78 1003.95 1004.45 1005.02 1005.18 1005.10 1004.88 1004.98 1005.17 1005.82 1006.34 1007.76 1010.22 1010.99 1011.33 1011.03 1010.80 1011.03 1011.28 1011.51 1012.15 1012.49 1013.01 1012.42 1012.24 1011.83 1011.38 1011.27 1011.57 1011.25 1011.33 1011.39 1011.61
1016.94 1015.90 1014.65 1013.68 1012.56 1011.56 1010.52 1009.51 1008.09 1006.64 1006.35 1004.76 1003.90 1003.86 1004.12 1004.97 1005.17 1005.57 1005.33 1005.68 1005.85 1006.31 1007.14 1008.47 1010.45 1011.16 1011.76 1011.46 1011.32 1011.09 1011.04 1011.23 1011.68 1012.13 1012.24 1012.29 1012.18 1011.92 1011.31 1011.55 1011.59 1011.45 1011.72 1012.07 1012.26
1016.91 1015.91 1015.50 1014.00 1013.19 1012.29 1010.81 1010.13 1009.02 1008.04 1005.48 1004.78 1003.72 1003.71 1003.97 1004.42 1004.54 1004.76 1005.23 1005.71 1006.12 1006.87 1007.83 1008.95 1010.66 1012.14 1012.63 1012.28 1011.73 1011.25 1010.66 1011.16 1011.42 1011.68 1011.91 1012.26 1012.08 1012.29 1012.03 1012.09 1012.30 1012.19 1012.14 1012.25 1012.33
Thickness
5753 5754 5755 5756 5757 5759 5761 5763 5764 5765 5767 5768 5770 5772 5775 5779 5786 5789 5789 5807 5808 5811 5811 5807 5802 5798 5796 5784 5784 5757 5734 5719 5729 5735 5751 5762 5770 5783 5786 5768 5769 5770 5760 5756 5753
5752 5753 5754 5755 5757 5758 5760 5762 5763 5764 5765 5767 5769 5771 5774 5777 5781 5787 5816 5816 5813 5811 5806 5797 5787 5789 5783 5785 5777 5759 5731 5728 5737 5743 5743 5754 5765 5773 5768 5764 5758 5755 5755 5753 5747
5752 5753 5754 5755 5756 5757 5759 5760 5762 5762 5764 5765 5767 5769 5772 5774 5778 5799 5824 5820 5814 5811 5806 5801 5795 5788 5781 5784 5769 5762 5741 5742 5735 5746 5750 5750 5767 5770 5770 5751 5766 5750 5747 5746 5744
5753 5753 5753 5755 5756 5757 5758 5759 5760 5761 5762 5763 5765 5767 5770 5771 5770 5813 5821 5818 5814 5809 5802 5798 5793 5781 5779 5765 5768 5749 5752 5750 5746 5746 5745 5751 5757 5758 5774 5768 5777 5767 5757 5751 5747
5754 5754 5755 5755 5756 5757 5758 5759 5759 5760 5761 5762 5763 5764 5768 5769 5779 5819 5817 5815 5810 5804 5796 5794 5784 5780 5770 5765 5767 5753 5748 5751 5755 5751 5753 5757 5759 5768 5767 5777 5773 5767 5758 5749 5751
5754 5755 5755 5756 5756 5757 5758 5759 5760 5760 5760 5760 5760 5760 5763 5761 5812 5816 5814 5809 5805 5800 5796 5793 5787 5794 5774 5767 5765 5767 5757 5753 5753 5752 5752 5749 5760 5770 5766 5778 5769 5766 5755 5751 5749
5754 5755 5755 5756 5757 5758 5759 5760 5761 5760 5759 5758 5757 5758 5759 5774 5812 5812 5812 5808 5808 5803 5793 5801 5800 5787 5790 5767 5770 5762 5745 5751 5754 5755 5752 5751 5749 5752 5765 5771 5764 5763 5761 5757 5749
5754 5754 5755 5756 5758 5759 5760 5761 5761 5760 5758 5757 5755 5755 5758 5806 5810 5804 5808 5806 5809 5807 5800 5808 5804 5797 5787 5776 5753 5749 5745 5729 5751 5756 5754 5749 5738 5758 5764 5767 5761 5763 5765 5761 5756
5754 5754 5755 5756 5758 5760 5762 5764 5764 5762 5758 5755 5753 5753 5758 5805 5796 5809 5809 5797 5802 5803 5804 5811 5802 5783 5779 5750 5731 5733 5730 5744 5750 5766 5758 5758 5744 5760 5763 5765 5760 5760 5768 5769 5762
5753 5755 5755 5756 5757 5760 5764 5769 5766 5762 5758 5756 5757 5746 5771 5777 5796 5804 5810 5803 5793 5793 5787 5788 5771 5757 5755 5740 5713 5725 5728 5745 5749 5760 5757 5750 5749 5760 5760 5760 5757 5758 5759 5770 5768
5753 5755 5756 5756 5757 5758 5764 5767 5761 5757 5758 5763 5765 5765 5778 5794 5803 5795 5803 5796 5790 5779 5755 5769 5747 5737 5753 5757 5760 5753 5747 5746 5758 5769 5757 5751 5752 5756 5756 5754 5757 5763 5754 5757 5774
5753 5755 5757 5758 5757 5756 5753 5759 5769 5775 5753 5778 5780 5776 5787 5794 5775 5784 5799 5773 5768 5749 5759 5748 5737 5765 5771 5774 5762 5755 5746 5742 5758 5765 5757 5754 5750 5757 5752 5754 5760 5760 5757 5761 5764
5753 5755 5758 5760 5760 5757 5757 5768 5790 5781 5747 5773 5786 5782 5787 5789 5771 5772 5784 5774 5759 5751 5752 5734 5758 5776 5771 5770 5754 5748 5745 5741 5751 5759 5763 5752 5743 5748 5756 5759 5761 5760 5763 5766 5761
5753 5755 5757 5761 5762 5759 5763 5789 5786 5781 5722 5749 5774 5787 5794 5790 5772 5798 5793 5779 5765 5751 5754 5749 5778 5772 5766 5763 5769 5737 5768 5761 5758 5746 5728 5757 5716 5743 5749 5751 5756 5760 5758 5760 5760
5752 5754 5754 5751 5749 5756 5777 5785 5788 5775 5694 5773 5778 5814 5798 5777 5779 5778 5798 5781 5757 5757 5760 5750 5766 5770 5766 5775 5781 5763 5775 5766 5761 5747 5744 5734 5721 5745 5747 5740 5752 5761 5761 5760 5758
5753 5754 5753 5752 5746 5770 5778 5782 5777 5717 5701 5759 5781 5775 5773 5776 5776 5781 5781 5789 5784 5766 5767 5763 5790 5786 5784 5794 5792 5785 5774 5758 5747 5721 5704 5732 5725 5730 5729 5748 5755 5754 5760 5760 5762
5757 5757 5753 5755 5761 5775 5777 5766 5716 5701 5763 5761 5764 5774 5767 5761 5764 5767 5761 5756 5740 5730 5734 5755 5766 5783 5793 5774 5778 5772 5737 5701 5699 5689 5697 5734 5722 5732 5747 5760 5761 5766 5765 5760 5763
5760 5766 5766 5767 5774 5770 5764 5736 5709 5741 5753 5781 5775 5774 5753 5763 5760 5764 5756 5743 5759 5749 5724 5720 5725 5769 5786 5772 5757 5760 5738 5701 5696 5688 5707 5731 5719 5723 5750 5763 5761 5776 5772 5765 5762
5760 5764 5764 5780 5775 5764 5740 5709 5718 5745 5767 5771 5772 5762 5757 5774 5770 5762 5748 5746 5759 5758 5729 5727 5738 5780 5786 5787 5773 5756 5738 5747 5721 5716 5700 5704 5720 5731 5750 5758 5763 5764 5768 5767 5770
5744 5753 5764 5786 5776 5756 5723 5712 5737 5769 5771 5772 5745 5759 5746 5758 5761 5757 5756 5774 5769 5775 5766 5754 5729 5765 5776 5787 5781 5765 5767 5728 5706 5700 5697 5701 5707 5708 5732 5744 5746 5747 5749 5754 5764
5738 5742 5775 5782 5772 5735 5708 5718 5749 5772 5774 5767 5757 5752 5752 5750 5755 5750 5754 5766 5777 5771 5769 5757 5737 5743 5761 5740 5739 5732 5722 5723 5715 5698 5683 5675 5691 5728 5728 5734 5738 5746 5749 5754 5755
5717 5720 5769 5776 5729 5720 5714 5737 5756 5759 5772 5770 5774 5764 5757 5756 5749 5747 5747 5761 5779 5774 5750 5757 5724 5714 5736 5739 5748 5734 5721 5709 5688 5692 5678 5680 5690 5739 5738 5738 5738 5747 5758 5762 5760
5693 5708 5757 5758 5713 5710 5726 5739 5747 5750 5754 5759 5763 5767 5764 5751 5740 5752 5758 5774 5779 5763 5749 5752 5710 5688 5706 5718 5726 5714 5714 5711 5699 5687 5683 5678 5687 5733 5738 5740 5744 5743 5752 5756 5758
5679 5684 5718 5734 5729 5722 5715 5722 5732 5760 5755 5767 5762 5766 5754 5748 5750 5743 5750 5765 5772 5762 5758 5747 5707 5695 5679 5700 5707 5699 5712 5710 5698 5678 5680 5682 5706 5716 5728 5735 5737 5735 5739 5748 5747
5667 5672 5695 5692 5705 5707 5714 5719 5723 5728 5752 5757 5758 5758 5749 5734 5738 5739 5751 5749 5757 5753 5755 5734 5698 5702 5703 5710 5713 5709 5709 5709 5700 5697 5684 5700 5707 5708 5725 5729 5728 5735 5736 5735 5734
5654 5661 5676 5684 5690 5703 5709 5712 5720 5734 5731 5738 5746 5753 5750 5732 5737 5729 5738 5738 5738 5747 5742 5726 5693 5700 5693 5704 5703 5701 5705 5705 5701 5698 5692 5695 5699 5710 5723 5726 5724 5725 5725 5724 5723
5644 5655 5657 5670 5675 5685 5693 5697 5709 5716 5740 5749 5752 5746 5744 5741 5751 5753 5752 5745 5746 5733 5720 5714 5688 5675 5672 5680 5686 5680 5700 5695 5696 5698 5695 5685 5699 5704 5710 5713 5713 5713 5717 5718 5721